Weather History for Parkersburg, WV

Change the Weather History Date:

Monday, October 15, 2012

  Actual Average Record
Temperature  
Mean Temperature 57 °F 56 °F  
Max Temperature 70 °F 67 °F 90 °F (1897)
Min Temperature 44 °F 44 °F 28 °F (1894)
Degree Days  
Heating Degree Days 8 10  
Month to date heating degree days 153 121  
Since 1 July heating degree days 254 197  
Cooling Degree Days 0 0  
Month to date cooling degree days 14 13  
Year to date cooling degree days 1174 949  
Growing Degree Days 8 (Base 50)    
Moisture  
Dew Point 50 °F    
Average Humidity 76    
Maximum Humidity 90    
Minimum Humidity 61    
Precipitation  
Precipitation T in 0.09 in 0.43 in (2002)
Month to date precipitation 0.34 1.37  
Year to date precipitation 33.14 33.24  
Sea Level Pressure  
Sea Level Pressure 29.85 in    
Wind  
Wind Speed 6 mph (West)    
Max Wind Speed 18 mph    
Max Gust Speed 29 mph    
Visibility 9 miles    
Events Rain    
T = Trace of Precipitation, MM = Missing Value Source: NWS Daily Summary

Daily Weather History Graph

Daily Weather History Graph

Search for Another Location

Airport:

Trip Planner

Search our weather history database for the weather conditions in past years. The results will help you decide how hot, cold, wet, or windy it might be!

Date:

Astronomy

Oct. 15, 2012 Rise Set
Actual Time 7:36 AM EDT 6:46 PM EDT
Civil Twilight 7:09 AM EDT 7:13 PM EDT
Nautical Twilight 6:37 AM EDT 7:44 PM EDT
Astronomical Twilight 6:06 AM EDT 8:15 PM EDT
Moon 7:44 AM EDT (10/15) 6:45 PM EDT (10/15)
Length of Visible Light 12h 04m
Length of Day
11h 10m
Waxing Crescent, 0% of the Moon is Illuminated
Oct 15
Waxing Crescent
Oct 21
First Quarter
Oct 29
Full
Nov 6
Last Quarter
Nov 13
New

Hourly Weather History & Observations

Time (EDT) Temp. Dew Point Humidity Pressure Visibility Wind Dir Wind Speed Gust Speed Precip Events Conditions
12:53 AM 69.1 °F 55.0 °F 61% 29.76 in 10.0 mi South 9.2 mph 19.6 mph N/A   Unknown
1:50 AM 64.4 °F 59.0 °F 83% 29.77 in 1.8 mi West 15.0 mph 34.5 mph 0.10 in Rain Rain
1:53 AM 63.0 °F 59.0 °F 87% 29.75 in 1.8 mi West 12.7 mph 34.5 mph 0.10 in Rain Rain
2:00 AM 62.6 °F 59.0 °F 88% 29.77 in 1.5 mi West 12.7 mph 21.9 mph 0.13 in Rain Heavy Rain
2:36 AM 60.8 °F 57.2 °F 88% 29.78 in 3.0 mi WSW 13.8 mph 24.2 mph 0.26 in Rain Rain
2:53 AM 61.0 °F 57.9 °F 90% 29.77 in 10.0 mi WSW 11.5 mph 18.4 mph 0.28 in Rain Light Rain
3:53 AM 61.0 °F 57.9 °F 90% 29.78 in 10.0 mi West 11.5 mph 18.4 mph 0.00 in   Unknown
4:53 AM 60.1 °F 55.0 °F 83% 29.79 in 10.0 mi West 6.9 mph - N/A   Unknown
5:53 AM 57.9 °F 52.0 °F 81% 29.81 in 10.0 mi WNW 5.8 mph - N/A   Unknown
6:53 AM 57.0 °F 50.0 °F 77% 29.82 in 10.0 mi West 6.9 mph - N/A   Unknown
7:53 AM 55.9 °F 50.0 °F 80% 29.82 in 10.0 mi West 3.5 mph - 0.00 in   Unknown
8:53 AM 55.9 °F 48.9 °F 77% 29.84 in 10.0 mi West 5.8 mph - N/A   Unknown
9:53 AM 55.9 °F 48.0 °F 75% 29.85 in 10.0 mi West 3.5 mph - N/A   Unknown
10:53 AM 55.9 °F 48.0 °F 75% 29.86 in 10.0 mi West 3.5 mph - N/A   Unknown
11:53 AM 57.0 °F 48.0 °F 72% 29.86 in 10.0 mi West 6.9 mph - N/A   Mostly Cloudy
12:53 PM 55.9 °F 51.1 °F 84% 29.86 in 10.0 mi West 3.5 mph - 0.00 in   Mostly Cloudy
1:53 PM - - N/A% 29.85 in 10.0 mi WNW 8.1 mph - N/A   Mostly Cloudy
2:53 PM 55.0 °F 46.0 °F 72% 29.87 in 8.0 mi West 10.4 mph 24.2 mph 0.00 in   Unknown
3:53 PM 54.0 °F 45.0 °F 72% 29.88 in 9.0 mi West 13.8 mph 19.6 mph 0.00 in   Overcast
4:53 PM 53.1 °F 42.1 °F 66% 29.90 in 10.0 mi West 9.2 mph 17.3 mph 0.00 in   Overcast
5:53 PM 53.1 °F 43.0 °F 69% 29.92 in 10.0 mi West 11.5 mph 16.1 mph N/A   Overcast
6:53 PM 52.0 °F 44.1 °F 74% 29.93 in 10.0 mi West 6.9 mph - N/A   Overcast
7:53 PM 50.0 °F 44.1 °F 80% 29.95 in 10.0 mi Calm Calm - N/A   Scattered Clouds
8:53 PM 48.9 °F 44.1 °F 83% 29.96 in 10.0 mi SW 4.6 mph - N/A   Scattered Clouds
9:53 PM 50.0 °F 44.1 °F 80% 29.97 in 10.0 mi WSW 4.6 mph - N/A   Mostly Cloudy
10:53 PM 48.9 °F 43.0 °F 80% 29.97 in 10.0 mi Calm Calm - N/A   Scattered Clouds
11:53 PM 46.0 °F 43.0 °F 89% 29.97 in 10.0 mi Calm Calm - N/A   Unknown